Location: Asheville, NC
(35.6000°N, 82.5500°W)
Time: 17:21:53

Humanity Star - Pass Details

Date: 12 March 2018
Orbit: 249 x 311 km, 82.9° (Epoch: 18 March)

Event Time Altitude Azimuth Distance (km) Brightness Sun altitude
Rises 20:56:22 0° 219° (SW) 1,898 8.8 -17.3°
Reaches altitude 10° 20:58:49 10° 249° (WSW) 1,089 8.1 -17.8°
Maximum altitude 21:00:03 13° 282° (WNW) 937 8.0 -18.0°
Drops below altitude 10° 21:01:18 10° 314° (NW) 1,094 8.0 -18.3°
Sets 21:03:47 0° 345° (NNW) 1,916 8.7 -18.7°
